This is the latest recevied weather packets stored in our database for station/object N1OF. If no packets are shown the sender has not sent any weather packets the latest 10 day(s).
| Time | Temp. | Humidity | Pressure | Rain* | Wind** | Luminosity | Snow |
|---|---|---|---|---|---|---|---|
| 1777746029 | 8.33° C | 46% | 1018.4 hPa | 0 mm | - | - | - |
| 1777745727 | 8.33° C | 46% | 1018.4 hPa | 0 mm | - | - | - |
| 1777745426 | 8.33° C | 44% | 1018.6 hPa | 0 mm | - | - | - |
| 1777745123 | 8.33° C | 47% | 1018.5 hPa | 0 mm | - | - | - |
| 1777744820 | 8.89° C | 44% | 1018.5 hPa | 0 mm | - | - | - |
| 1777744513 | 8.33° C | 46% | 1018.7 hPa | 0 mm | - | - | - |
| 1777744210 | 8.33° C | 46% | 1018.8 hPa | 0 mm | - | - | - |
| 1777743907 | 8.33° C | 46% | 1018.7 hPa | 0 mm | - | - | - |
| 1777743603 | 7.78° C | 48% | 1018.7 hPa | 0 mm | - | - | - |
| 1777743301 | 7.78° C | 48% | 1018.6 hPa | 0 mm | - | - | - |
| 1777742999 | 7.78° C | 50% | 1018.7 hPa | 0 mm | - | - | - |
| 1777742695 | 7.22° C | 50% | 1018.7 hPa | 0 mm | - | - | - |
| 1777742392 | 7.78° C | 52% | 1019 hPa | 0 mm | - | - | - |
| 1777742088 | 7.22° C | 52% | 1018.8 hPa | 0 mm | - | - | - |
| 1777741785 | 7.78° C | 52% | 1018.8 hPa | 0 mm | - | - | - |
| 1777741482 | 7.78° C | 51% | 1018.9 hPa | 0 mm | - | - | - |
| 1777741177 | 7.78° C | 52% | 1018.8 hPa | 0 mm | - | - | - |
| 1777740875 | 7.22° C | 51% | 1019 hPa | 0 mm | - | - | - |
| 1777740572 | 7.22° C | 52% | 1018.9 hPa | 0 mm | - | - | - |
| 1777740268 | 7.78° C | 52% | 1019 hPa | 0 mm | - | - | - |
| 1777739965 | 7.22° C | 51% | 1019.2 hPa | 0 mm | - | - | - |
| 1777739661 | 7.22° C | 51% | 1019.1 hPa | 0 mm | - | - | - |
| 1777739359 | 7.22° C | 54% | 1019 hPa | 0 mm | - | - | - |
| 1777739056 | 7.78° C | 53% | 1019.1 hPa | 0 mm | - | - | - |
| 1777738753 | 7.22° C | 52% | 1019.2 hPa | 0 mm | - | - | - |
* Rain latest hour (hover to see other rain measurements)
** Current wind speed in m/s (hover to see current wind gust speed)